Nantucket, Massachusetts, United States (02554)
Lat: 41.28N, Lon: 70.1W
Wx Zone: MAZ024
Local Info
Past Weather Observations for Today

NOTE: This archive is for the closest National Weather Service station to Nantucket. Information may differ from the station used for current weather conditions.

Time Weather Temperature Dewpoint Humidity Pressure Winds Precip Visibility
22:53
Clear
36°F / 2°C 21°F / -6°C 56% 30.57 in
(1035 mb)
NE 11.5 mph
(NE 19 kph)
- 10SM
21:53
Clear
36°F / 2°C 21°F / -6°C 56% 30.54 in
(1034 mb)
NE 11.5 mph
(NE 19 kph)
- 10SM
20:53
Clear
36°F / 2°C 21°F / -6°C 56% 30.54 in
(1034 mb)
NE 11.5 mph
(NE 19 kph)
- 10SM
19:53
Clear
36°F / 2°C 19°F / -7°C 52% 30.51 in
(1033 mb)
NE 13.8 mph
(NE 22 kph)
- 10SM
18:53
Clear
36°F / 2°C 19°F / -7°C 52% 30.48 in
(1032 mb)
NE 12.7 mph
(NE 20 kph)
- 10SM
17:53
Clear
37°F / 3°C 21°F / -6°C 52% 30.45 in
(1031 mb)
NE 16.1 mph
(NE 26 kph)
- 10SM
16:53
Clear
39°F / 4°C 18°F / -8°C 42% 30.42 in
(1030 mb)
NNE 18.4 mph
(NNE 30 kph)
- 10SM
15:53
Clear
43°F / 6°C 18°F / -8°C 36% 30.39 in
(1029 mb)
N 23 mph
(N 37 kph)
- 10SM
14:53
Clear
43°F / 6°C 19°F / -7°C 39% 30.36 in
(1028 mb)
N 23 mph
(N 37 kph)
- 10SM
13:53
Clear
41°F / 5°C 19°F / -7°C 42% 30.33 in
(1027 mb)
N 24.2 mph
(N 39 kph)
- 10SM
12:53
Clear
41°F / 5°C 21°F / -6°C 45% 30.33 in
(1027 mb)
N 23 mph
(N 37 kph)
- 10SM
11:53
Clear
39°F / 4°C 21°F / -6°C 48% 30.27 in
(1025 mb)
N 27.6 mph
(N 44 kph)
- 10SM
11:10
Clear
39°F / 4°C 21°F / -6°C 48% 30.24 in
(1024 mb)
N 27.6 mph
(N 44 kph)
- 10SM
10:53
Clear
39°F / 4°C 21°F / -6°C 48% 30.24 in
(1024 mb)
NNW 26.5 mph
(NNW 43 kph)
- 10SM
09:53
Clear
39°F / 4°C 21°F / -6°C 48% 30.21 in
(1023 mb)
N 28.8 mph
(N 46 kph)
- 10SM
08:53
Partly Cloudy
37°F / 3°C 27°F / -3°C 65% 30.15 in
(1021 mb)
N 21.9 mph
(N 35 kph)
0.00 in
(0.00 mm)
10SM
07:53
Overcast
37°F / 3°C 30°F / -1°C 75% 30.12 in
(1020 mb)
NNW 25.3 mph
(NNW 41 kph)
0.00 in
(0.00 mm)
10SM
07:32
Overcast
37°F / 3°C 32°F / 0°C 81% 30.09 in
(1019 mb)
NNW 23 mph
(NNW 37 kph)
0.00 in
(0.00 mm)
10SM
06:53
Overcast
Light Rain
36°F / 2°C 34°F / 1°C 93% 30.06 in
(1018 mb)
NW 20.7 mph
(NW 33 kph)
0.05 in
(1.27 mm)
10SM
06:26
Overcast
Light Rain
36°F / 2°C 34°F / 1°C 93% 30.04 in
(1017 mb)
NW 24.2 mph
(NW 39 kph)
0.05 in
(1.27 mm)
4SM
05:53
Overcast
Light Rain
37°F / 3°C 36°F / 2°C 93% 29.98 in
(1015 mb)
NNW 19.6 mph
(NNW 32 kph)
0.18 in
(4.57 mm)
7SM
05:19
Overcast
Rain
39°F / 4°C 36°F / 2°C 87% 29.95 in
(1014 mb)
N 18.4 mph
(N 30 kph)
0.10 in
(2.54 mm)
5SM
05:08
Overcast
Heavy Rain
39°F / 4°C 37°F / 3°C 93% 29.95 in
(1014 mb)
NNW 17.3 mph
(NNW 28 kph)
0.07 in
(1.78 mm)
4SM
04:53
Overcast
Rain
39°F / 4°C 36°F / 2°C 87% 29.92 in
(1013 mb)
N 19.6 mph
(N 32 kph)
0.21 in
(5.33 mm)
5SM
04:07
Overcast
Rain
39°F / 4°C 37°F / 3°C 93% 29.86 in
(1011 mb)
N 21.9 mph
(N 35 kph)
0.04 in
(1.02 mm)
6SM
03:53
Overcast
Rain
41°F / 5°C 39°F / 4°C 93% 29.86 in
(1011 mb)
NNW 21.9 mph
(NNW 35 kph)
0.14 in
(3.56 mm)
6SM
03:33
Overcast
Rain
41°F / 5°C 39°F / 4°C 93% 29.83 in
(1010 mb)
NNW 18.4 mph
(NNW 30 kph)
0.10 in
(2.54 mm)
5SM
02:58
Overcast
Heavy Rain
43°F / 6°C 39°F / 4°C 87% 29.8 in
(1009 mb)
NNW 20.7 mph
(NNW 33 kph)
0.03 in
(0.76 mm)
4SM
02:53
Overcast
Heavy Rain
43°F / 6°C 39°F / 4°C 87% 29.77 in
(1008 mb)
N 18.4 mph
(N 30 kph)
0.05 in
(1.27 mm)
4SM
02:14
Overcast
Light Rain
45°F / 7°C 43°F / 6°C 93% 29.77 in
(1008 mb)
N 16.1 mph
(N 26 kph)
0.01 in
(0.25 mm)
10SM
01:53
Overcast
Light Rain
45°F / 7°C 43°F / 6°C 93% 29.74 in
(1007 mb)
NNW 18.4 mph
(NNW 30 kph)
0.04 in
(1.02 mm)
5SM
01:49
Overcast
Light Rain
45°F / 7°C 43°F / 6°C 93% 29.74 in
(1007 mb)
NNW 19.6 mph
(NNW 32 kph)
0.04 in
(1.02 mm)
4SM
01:25
Overcast
Rain
46°F / 8°C 45°F / 7°C 93% 29.77 in
(1008 mb)
NNW 21.9 mph
(NNW 35 kph)
0.02 in
(0.51 mm)
3SM
01:00
Overcast
Light Rain
46°F / 8°C 45°F / 7°C 93% 29.77 in
(1008 mb)
NW 21.9 mph
(NW 35 kph)
0.00 in
(0.00 mm)
2 1/2SM
00:53
Overcast
Fog And Mist
46°F / 8°C 45°F / 7°C 93% 29.71 in
(1006 mb)
NW 20.7 mph
(NW 33 kph)
0.00 in
(0.00 mm)
3SM
00:31
Overcast
Light Rain
48°F / 9°C 46°F / 8°C 94% 29.71 in
(1006 mb)
NW 16.1 mph
(NW 26 kph)
0.00 in
(0.00 mm)
5SM
00:11
Overcast
Light Rain
50°F / 10°C 48°F / 9°C 94% 29.68 in
(1005 mb)
SW 15 mph
(SW 24 kph)
0.00 in
(0.00 mm)
3SM
Time Weather Temperature Dewpoint Humidity Pressure Winds Precip Visibility


Weather for websites

WeatherForYou.com, LLC is not responsible for any damages or problems caused by this service. Current weather conditions are obtained from the closest station including government and personal stations which may have varying degrees of accuracy. Weather forecasts are derived from the NOAA NDFD. Like all things, this site belongs to Jesus Christ... He just trusts me to maintain it. If you have any questions or comments email webmaster@weatherforyou.com

Copyright © 2014, WeatherForYou.com LLC. All rights reserved.